SBSP Airport Information

Runway Information
Runway 17L Length 4708 ft width 148 ft
Elevation 0 ft Threshold 0 ft Heading 0
Runway 35R Length 4708 ft Width 148 ft
Elevation 0 ft Threshold 0 ft Heading 0
Runway 17R Length 6365 ft width 148 ft
Elevation 0 ft Threshold 0 ft Heading 0
Runway 35L Length 6365 ft Width 148 ft
Elevation 0 ft Threshold 0 ft Heading 0
Airport Frequencies
Type APP Name SAO PAULO Frequency 119.8 MHZ
Type ATIS Name ATIS Frequency 127.65 MHZ
Type CLD Name CLNC DEL Frequency 120.6 MHZ
Type GND Name GND Frequency 121.9 MHZ
Type TWR Name SAO PAULO Frequency 127.15 MHZ
Airport Navaids
Type VOR-DME Name Congonhas Frequency 116900 KHZ
Type NDB Name Diadema Frequency 200 KHZ
Type NDB Name Mada Frequency 290 KHZ
Type NDB Name Metro Frequency 330 KHZ
Type NDB Name Sao Paulo Frequency 250 KHZ
Airport Weather Information & NOTAM
ADDS - METARS form results

(2224 UTC 20 June 2018)
 
METAR text: SBSP 202200Z 15005KT CAVOK 20/14 Q1025
Conditions at: SBSP (SAO PAULO/CONGON, BR) observed 2200 UTC 20 June 2018
Temperature: 20.0°C (68°F)
Dewpoint: 14.0°C (57°F) [RH = 68%]
Pressure (altimeter): 30.27 inches Hg (1025.0 mb)
Winds: from the SSE (150 degrees) at 6 MPH (5 knots; 2.6 m/s)
Visibility: 6 or more miles (10+ km)
Ceiling: ceiling and visibility are OK
Clouds: unknown
Weather: no significant weather observed at this time